Cosmos 407 Rocket - Orbit

View from above orbital plane
View from above orbital plane
View from above satellite
View from above satellite

Ground track
Ground track

The orbit data is extracted from the following two-line orbital elements,

1 05175U 71035B   13168.77420090  .00000065  00000-0  30584-4 0  1517
2 05175 074.0490 015.3141 0030817 227.3343 132.5213 14.37265679205084
Epoch (UTC): 17 June 2013 18:34:50
Eccentricity: 0.0030817
inclination: 74.0490°
perigee height: 745 km
apogee height: 789 km
right ascension of ascending node: 15.3141°
argument of perigee: 227.3343°
revolutions per day: 14.37265679
mean anomaly at epoch: 132.5213°
orbit number at epoch: 20508

The dashed part of the orbit path shows where the satellite is in the earth's shadow,  

Developed and maintained by Chris Peat, Heavens-Above GmbH. Please read the updated FAQ before sending e-mail. Imprint. DLR